Location: Alfortville
(48.8058°N, 2.4204°E)
Time: 03:20:54
(UTC+00:00)

Envisat - Pass Details

Date: 27 November 2022
Orbit: 763 x 765 km, 98.2° (Epoch: 28 January)

Event Time Altitude Azimuth Distance (km) Brightness Sun altitude
Rises 04:42:52 0° 10° (N) 3,246 6.3 -24.7°
Reaches altitude 10° 04:45:13 10° 6° (N) 2,315 5.5 -24.3°
Enters shadow 04:49:02 44° 334° (NNW) 1,050 3.4 -23.6°
